Location: Bannatyne
(13.0833°N, 59.5333°W)
Time: 20:49:45
(UTC+00:00)

Vanguard 3 - Pass Details

Date: 27 January 2020
Orbit: 508 x 3263 km, 33.3° (Epoch: 19 February)

Event Time Altitude Azimuth Distance (km) Brightness Sun altitude
Rises 19:33:17 0° 249° (WSW) 5,924 12.7 31.0°
Reaches altitude 10° 19:36:45 10° 252° (WSW) 5,209 12.7 30.3°
Maximum altitude 19:53:34 65° 332° (NNW) 3,393 10.7 26.7°
Drops below altitude 10° 20:13:20 10° 53° (NE) 5,947 11.0 22.4°
Sets 20:17:40 0° 56° (NE) 6,759 11.2 21.5°
